Regional Weather Roundup
Issued by NWS

Home | Current Version | Previous Version | Text Only | Print | Product List | Glossary On
Versions: 1 2 3 4 5 6 7 8 9 10 11 12 13 14 15 16 17 18 19 20 21 22 23 24 25 26 27 28 29 30 31 32 33 34 35 36 37 38 39 40 41 42 43 44 45 46 47 48 49 50
000
ASUS43 KDTX 200510
RWRMI
MICHIGAN HOURLY REGIONAL WEATHER ROUNDUP
NATIONAL WEATHER SERVICE DETROIT/PONTIAC MI
100 AM EDT SAT AUG 20 2022

NOTE: "FAIR" INDICATES FEW OR NO CLOUDS BELOW 12,000 FEET WITH NO
SIGNIFICANT WEATHER AND/OR OBSTRUCTION TO VISIBILITY.

MIZ047>049-052>055-059>063-066>070-074>076-081>083-200600-
SOUTHEAST LOWER MICHIGAN

CITY           SKY/WX    TMP DP  RH WIND       PRES   REMARKS
ADRIAN         PTCLDY    65  62  90 E3        30.05R
ALMA           CLEAR     62  59  88 CALM      30.02S
ANN ARBOR      CLEAR     68  64  87 CALM      30.05R
BAD AXE        CLEAR     64  58  81 E9        30.04R
CARO           CLEAR     62  60  93 CALM      30.04R
DETROIT CITY   CLEAR     73  64  73 S5        30.05R
DETROIT        PTCLDY    71  66  84 CALM      30.05R
FLINT          CLEAR     68  61  78 S7        30.04R
GROSSE ILE     CLOUDY    74  74 100 SE7       30.04R
HILLSDALE      MOCLDY    65  63  93 SE3       30.05R
HOWELL         PTCLDY    65  61  86 SE5       30.05R

CITY           SKY/WX    TMP DP  RH WIND       PRES   REMARKS
JACKSON        MOCLDY    69  61  75 SE3       30.04R
LAMBERTVILLE   PTCLDY    64  64  99 CALM      30.04R
LANSING        PTCLDY    71  61  70 SE7       30.03S
LAPEER         CLEAR     61  58  89 CALM      30.05R
MASON          MOCLDY    65  61  86 SE8       30.04S
MONROE         CLEAR     70  68  93 CALM      30.04R
MT. CLEMENS    CLEAR     67  67  99 CALM      30.02R
PONTIAC        CLEAR     66  60  81 CALM      30.05R
PORT HOPE        N/A     72  60  66 S3        30.02R
PORT HURON     CLEAR     63  57  82 CALM      30.05S
TRI CITIES     CLEAR     69  59  70 S6        30.03R
MIDLAND        PTCLDY    63  60  93 CALM      30.02R
TROY           CLEAR     71  63  76 CALM      30.07R
SAGINAW HB     CLEAR     65  58  78 SE5       30.03R
$$
MIZ043>046-050>051-056>058-064>065-071>073-077>080-200600-
SOUTHWEST LOWER MICHIGAN

CITY           SKY/WX    TMP DP  RH WIND       PRES   REMARKS
BATTLE CREEK   MOCLDY    70  62  76 SE7       30.03R
BENTON HARBOR    N/A    N/A N/A N/A MISG      29.97S
BIG RAPIDS     PTCLDY    63  61  93 W3        30.01R
COLDWATER      MOCLDY    66  62  85 SE3       30.03S
FREMONT        FAIR      71  61  70 SE3       29.99S
HOLLAND        MOCLDY    68  62  81 S6        29.99R
GRAND RAPIDS   PTCLDY    67  61  81 SE5       30.01R
IONIA          FAIR      67  61  83 SE6       30.02R
KALAMAZOO      MOCLDY    71  62  73 SE3       30.01S
LUDINGTON      PTCLDY    66  59  78 E3        29.97R
MARSHALL       MOCLDY    67  62  82 SE5       30.03S
MOUNT PLEASANT CLEAR     62  62 100 CALM      30.01S
MUSKEGON       MOCLDY    72  62  71 SE8       29.98R
SOUTH HAVEN    MOCLDY    70  61  73 CALM      29.98S
$$
MIZ016>042-200600-
NORTHERN LOWER MICHIGAN

CITY           SKY/WX    TMP DP  RH WIND       PRES   REMARKS
ALPENA         CLOUDY    64  60  87 CALM      30.02S
BEAVER ISLAND  PTCLDY    61  61  98 CALM      29.98S
BELLAIRE       PTCLDY    61  59  96 CALM      30.00S FOG
CADILLAC       CLEAR     58  57  96 CALM      30.02R
CHARLEVOIX     PTCLDY    65  62  89 CALM      29.99F
FRANKFORT      MOCLDY    63  59  86 CALM      29.97S
GAYLORD        PTCLDY    63  57  81 CALM      30.04R
GRAYLING       PTCLDY   N/A N/A N/A CALM      30.03R
HARBOR SPRINGS PTCLDY    62  61  95 CALM      30.00R
HOUGHTON LAKE  PTCLDY    63  59  87 CALM      30.04R
MANISTEE       PTCLDY    63  60  90 E7        29.97S
OSCODA         PTCLDY    65  64  96 CALM      30.02R
PELLSTON       PTCLDY    59  58  96 CALM      30.00S
ROGERS CITY    CLEAR     68  61  80 S6        30.02R
TRAVERSE CITY  CLEAR     67  60  78 CALM      29.98R
$$
MIZ007>008-015-200600-
EASTERN UPPER MICHIGAN

CITY           SKY/WX    TMP DP  RH WIND       PRES   REMARKS
KINROSS        CLEAR     67  63  87 S6        29.99S
MACKINAC ISLAN PTCLDY    67  67  98 S7        29.99S
S. S. MARIE    MOCLDY    66  61  84 CALM      29.97S
$$
MIZ004>006-011>014-085-200600-
CENTRAL UPPER MICHIGAN

CITY           SKY/WX    TMP DP  RH WIND       PRES   REMARKS
MANISTIQUE     PTCLDY    66  65  97 CALM      29.96S
ESCANABA       MOCLDY    70  65  84 CALM      29.94F
MENOMINEE      CLOUDY    70  67  90 S5        29.94S
SAWYER-GWINN   PTCLDY    65  61  86 S7        29.95R
MUNISING         N/A     69  64  84 S6        29.94R
$$
MIZ001>003-009>011-084-200600-
WESTERN UPPER MICHIGAN

CITY           SKY/WX    TMP DP  RH WIND       PRES   REMARKS
IRON MOUNTAIN  PTCLDY    63  62  97 CALM      29.93F
HOUGHTON       MOCLDY    64  62  93 N5        29.92S
COPPER HARBOR    N/A     62  61  96 CALM      29.92R
IRONWOOD       CLEAR     62  62 100 E5        29.94S
$$

ABBREVIATIONS USED IN REMARKS
   TC - TEMPERATURE IN CELSIUS
  WCI - WIND CHILL INDEX
   HX - HEAT INDEX
  VSB - VISIBILITY




USA.gov is the U.S. government's official web portal to all federal, state and local government web resources and services.